COSMOS 2167

Satellite information

Favourite Embed

Satellite Type and Status

PAYLOADIN ORBIT

Key statistics

Satellite COSMOS 2167 at a glance.

Uptime

12292

Days in orbit

Revolutions

≈ 12.6

Per day

Orbit

LEO

Low Earth Orbit

Inclination

82.6

Latest

Satellite identification and parameters

Extended collection of information and parameters for COSMOS 2167.

Object identification

Identified? True

Debris? False

Object name: COSMOS 2167

International designator: 1991-077C

Object number (NORAD): 21781

Object ID (CCSDS): 21781

Country: COMMONWEALTH OF INDEPENDENT STATES (CIS)

Current information (Y/N): Y

RCS size: LARGE

Orbital parameters

Period: 113.899 minutes

Inclination: 82.6054 deg

SMA: 7783.471 km

Apoapsis: 1411.04 km

Periapsis: 1399.633 km

RAAN: 101.4703 deg

Eccentricy: 0.0007328

Argument of periapsis: 139.4857 deg

Mean anomaly: 336.4632 deg

Mean motion: 12.64278518 rev/day

Mean motion (dot): 0.00000005 rev/day2

B* drag term: -0.000032844 1/REarth

Two-line elements (TLE)

Creation date: July 6, 2025, 6:05 p.m.

Reference frame: TEME

Reference center: EARTH

Epoch: July 6, 2025, 6:36 a.m. UTC

TLE line 0: 0 COSMOS 2167

TLE line 1: 1 21781U 91077C 25187.27541131 .00000005 00000-0 -32844-4 0 9991

TLE line 2: 2 21781 82.6054 101.4703 0007328 139.4857 336.4632 12.64278518552237

Live tracking on map

Real-time ground track for satellite COSMOS 2167.

In-orbit conjunctions

A list of the most updated potential collisions computed for object COSMOS 2167.

Target Orbit TCA Probability of collision Miss distance Type
FENGYUN 1C DEB SSO 2025-01-27 23:17:04 0.0002316896 253.0 (m) DEBRIS

Associated space launch

Second generation store-dump military communications satellite

COSMOS 2167 was lifted into orbit during the mission ‘Tsiklon-3 | Strela-3 73 to 78’, on board a Tsiklon-3 space rocket.

The launch took place on Nov. 12, 1991, 8:09 p.m. from 32/1.

For more information about the launch, click the button.

Launch to space Tsiklon-3 | Strela-3 73 to 78
Tsiklon-3 | Strela-3 73 to 78

Agency: N/A

Status: Launch Successful

Launch date: Nov. 12, 1991, 8:09 p.m. UTC

Rocket: Tsiklon-3

Launch pad: 32/1

Location: Plesetsk Cosmodrome, Russian Federation

...

Latest news about this satellite

There are no fresh news available about this satellite. Check back as we update our databases every day.


Newsletter sign-up

Weekly statistics, charts and insights to help you stay on top of the space industry.